• Join FlightAware (Why Join?)
  • Login
  • US Flag GB Flag 
18:41 EDT


 

Airport Tracker/Info


-or-


 

Live Flight TrackerFlight Track Log ✈ UAL5887 ✈ 15-Apr-2013 ✈ KORD - CYOW

Flight Track Log - Related Links

Times and Time Zones

All times are in EDT time to prevent confusion due to time zone crossing. See the UAL5887 flight status page for this flight to view local times or setup timezone preferences in your user account.

Time Position Orientation Groundspeed Altitude Reporting Facility
EDT Latitude Longitude Course Direction KTS MPH feet Rate Location/Type
10:24 41.9689 -87.7925 90° East 270 311 5,000  Level Chicago Center
10:25 42.0353 -87.7211 39° Northeast 300 345 7,600 2,220 Climbing Chicago Center
10:26 42.0839 -87.6289 55° Northeast 315 362 9,700 1,980 Climbing Chicago Center
10:27 42.1211 -87.5194 65° Northeast 322 371 11,800 1,740 Climbing Chicago Center
10:28 42.2614 -87.0825 66° East  Level FlightAware Approximate
10:28 42.1614 -87.4061 64° Northeast 334 384 13,400  Level Chicago Center
10:29 42.2833 -86.9324 90° East  Level FlightAware Approximate
10:29 42.2056 -87.2789 65° Northeast 375 432 14,000  Level Chicago Center
10:30 42.2633 -87.1106 65° Northeast 412 474 14,800 960 Climbing Chicago Center
10:31 42.2842 -86.9533 80° East 429 494 16,000 960 Climbing Chicago Center
10:32 42.2903 -86.7900 87° East 436 502 16,900 960 Climbing Chicago Center
10:33 42.2972 -86.6206 87° East 443 510 18,000 960 Climbing Chicago Center
10:34 42.3022 -86.4628 87° East 447 514 18,900 960 Climbing Chicago Center
10:35 42.3081 -86.2950 87° East 450 518 20,000 1,020 Climbing Chicago Center
10:36 42.3150 -86.0897 87° East 458 527 21,100 960 Climbing Chicago Center
10:37 42.3131 -85.9131 91° East 463 533 22,100 960 Climbing Chicago Center
10:38 42.3111 -85.7428 91° East 466 536 23,100 960 Climbing Chicago Center
10:39 42.3086 -85.5683 91° East 467 537 24,100 960 Climbing Chicago Center
10:40 42.3061 -85.3900 91° East 476 548 25,100 1,020 Climbing Chicago Center
10:41 42.3050 -85.2528 91° East 473 544 25,800 1,020 Climbing Cleveland Center
10:42 42.3017 -85.0728 91° East 479 551 26,800 960 Climbing Cleveland Center
10:43 42.3000 -84.8958 91° East 474 545 27,800 960 Climbing Cleveland Center
10:44 42.3317 -84.7181 76° East 474 545 28,800 960 Climbing Cleveland Center
10:45 42.3600 -84.5625 76° East 474 545 29,800 960 Climbing Cleveland Center
10:46 42.3972 -84.3847 74° East 480 552 30,800 600 Climbing Cleveland Center
10:47 42.4367 -84.2042 73° East 490 564 31,000 60 Climbing Cleveland Center
10:48 42.4756 -84.0178 74° East 501 577 31,000  Level Cleveland Center
10:49 42.5167 -83.8228 74° East 515 593 31,000  Level Cleveland Center
10:50 42.5619 -83.6136 74° East 521 600 31,000 180 Level Cleveland Center
10:51 42.5981 -83.4236 75° East 521 600 31,400 720 Climbing Cleveland Center
10:52 42.6381 -83.2306 74° East 526 605 32,500 780 Climbing Cleveland Center
10:53 42.6756 -83.0486 74° East 521 600 33,000 300 Climbing Cleveland Center
10:54 42.7128 -82.8550 75° East 521 600 33,100 660 Climbing Cleveland Center
10:55 42.7497 -82.6697 75° East 516 594 34,400 1,320 Climbing Cleveland Center
10:56 42.7861 -82.4900 75° East 502 578 35,800 1,260 Climbing Cleveland Center
10:57 42.8181 -82.3125 76° East 488 562 36,900 600 Climbing Cleveland Center
10:58 42.8603 -82.1381 72° East 483 556 37,000  Climbing Cleveland Center
10:59 42.9333 -81.8833 69° East 490 564 37,000  Level Toronto Center
11:00 43.0000 -81.7333 59° Northeast 500 575 37,000  Level Toronto Center
11:01 43.0500 -81.5500 69° East 500 575 37,000  Level Toronto Center
11:02 43.1167 -81.3667 63° Northeast 500 575 37,000  Level Toronto Center
11:03 43.1667 -81.2167 65° Northeast 500 575 37,000  Level Toronto Center
11:04 43.2167 -81.0500 68° East 500 575 37,000  Level Toronto Center
11:05 43.2833 -80.8667 63° Northeast 500 575 37,000  Level Toronto Center
11:06 43.3500 -80.7167 59° Northeast 490 564 37,000  Level Toronto Center
11:07 43.4167 -80.5333 63° Northeast 480 552 37,000  Level Toronto Center
11:08 43.4667 -80.3667 67° East 480 552 37,000  Level Toronto Center
11:09 43.5167 -80.2000 67° East 470 541 37,000  Level Toronto Center
11:10 43.5667 -80.0500 65° Northeast 470 541 37,000  Level Toronto Center
11:11 43.6167 -79.8833 67° East 470 541 37,000  Level Toronto Center
11:12 43.6833 -79.7333 58° Northeast 480 552 37,000  Level Toronto Center
11:13 43.7333 -79.5333 71° East 490 564 37,000  Level Toronto Center
11:14 43.7833 -79.3500 69° East 500 575 37,000  Level Toronto Center
11:15 43.8500 -79.2000 58° Northeast 500 575 37,000  Level Toronto Center
11:16 43.9000 -79.0000 71° East 490 564 37,000  Level Toronto Center
11:17 43.9667 -78.8500 58° Northeast 490 564 37,000  Level Toronto Center
11:18 44.0167 -78.6667 69° East 490 564 37,000  Level Toronto Center
11:19 44.0667 -78.5000 67° East 490 564 37,000  Level Toronto Center
11:20 44.1167 -78.3167 69° East 490 564 37,000 -180 Level Toronto Center
11:21 44.1667 -78.1500 67° East 490 564 36,700 -900 Descending Toronto Center
11:22 44.2167 -77.9833 67° East 480 552 35,200 -1,740 Descending Toronto Center
11:23 44.2667 -77.8167 67° East 470 541 33,300 -2,460 Descending Toronto Center
11:24 44.3333 -77.6333 63° Northeast 460 529 30,300 -2,700 Descending Toronto Center
11:25 44.3833 -77.4833 65° Northeast 460 529 27,900 -2,160 Descending Toronto Center
11:26 44.4500 -77.3500 55° Northeast 450 518 26,000 -1,860 Descending Toronto Center
11:27 44.5000 -77.2833 44° Northeast 440 506 24,800 -1,200 Descending Montreal Center
11:28 44.5667 -77.1167 61° Northeast 440 506 24,000 -900 Descending Montreal Center
11:29 44.6333 -76.9833 55° Northeast 440 506 23,100 -540 Descending Montreal Center
11:30 44.7000 -76.8333 58° Northeast 430 495 23,000 -1,500 Descending Montreal Center
11:31 44.7667 -76.7000 55° Northeast 430 495 20,200 -3,000 Descending Montreal Center
11:31 44.7833 -76.6167 74° East 420 483 19,000 -3,840 Descending Toronto Center
11:32 44.8500 -76.5000 51° Northeast 400 460 15,100 -3,960 Descending Toronto Center
11:33 44.9000 -76.4667 25° Northeast 380 437 12,400 -4,020 Descending Montreal Center
11:33 44.9167 -76.3833 74° East 380 437 11,100 -2,340 Descending Toronto Center
11:34 44.9500 -76.3500 35° Northeast 360 414 10,100 -1,500 Descending Montreal Center
11:35 45.0000 -76.2500 55° Northeast 310 357 8,600 -1,620 Descending Montreal Center
11:36 45.0500 -76.1500 55° Northeast 290 334 6,900 -1,560 Descending Montreal Center
11:37 45.1000 -76.0833 43° Northeast 280 322 5,500 -1,260 Descending Montreal Center
11:38 45.1500 -76.0000 50° Northeast 270 311 4,400 -900 Descending Montreal Center
11:39 45.1833 -75.9000 65° Northeast 270 311 3,700 -780 Descending Montreal Center
11:40 45.2333 -75.8333 43° Northeast 240 276 2,900 -960 Descending Montreal Center
11:41 45.2667 -75.7500 60° Northeast 200 230 1,800 -960 Descending Montreal Center
11:42 45.2833 -75.7000 65° Northeast 130 150 1,000 -720 Descending Montreal Center
11:43 45.3000 -75.6667 55° Northeast 120 138 400 -600 Descending Montreal Center